Weather History for Bentonville, AR

Change the Weather History Date:

Thursday, December 27, 2012

  Actual Average Record
Temperature  
Mean Temperature 32 °F -  
Max Temperature 41 °F 46 °F 72 °F (1971)
Min Temperature 24 °F 26 °F 7 °F (1983)
Degree Days  
Heating Degree Days 32    
Moisture  
Dew Point 20 °F    
Average Humidity 63    
Maximum Humidity 75    
Minimum Humidity 42    
Precipitation  
Precipitation 0.00 in - - ()
Sea Level Pressure  
Sea Level Pressure 29.99 in    
Wind  
Wind Speed 8 mph (SE)    
Max Wind Speed 13 mph    
Max Gust Speed 18 mph    
Visibility 10 miles    
Events      
Averages and records for this station are not official NWS values.
T = Trace of Precipitation, MM = Missing Value Source: NWS Daily Summary

Daily Weather History Graph

Daily Weather History Graph

Search for Another Location

Airport:

Trip Planner

Search our weather history database for the weather conditions in past years. The results will help you decide how hot, cold, wet, or windy it might be!

Date:

Astronomy

Dec. 27, 2012 Rise Set
Actual Time 7:27 AM CST 5:09 PM CST
Civil Twilight 6:58 AM CST 5:38 PM CST
Nautical Twilight 6:26 AM CST 6:10 PM CST
Astronomical Twilight 5:54 AM CST 6:41 PM CST
Moon 4:52 PM CST (12/27) 6:39 AM CST (12/27)
Length of Visible Light 10h 39m
Length of Day
9h 42m
Full, 100% of the Moon is Illuminated
Dec 27
Full
Dec 28
Full
Jan 4
Last Quarter
Jan 11
New
Jan 18
First Quarter

Hourly Weather History & Observations

Time (CST) Temp. Windchill Dew Point Humidity Pressure Visibility Wind Dir Wind Speed Gust Speed Precip Events Conditions
12:35 AM 24.8 °F 16.9 °F 17.6 °F 74% 30.07 in 10.0 mi ESE 6.9 mph - N/A   Clear
12:55 AM 24.8 °F 17.9 °F 17.6 °F 74% 30.07 in 10.0 mi ESE 5.8 mph - N/A   Clear
1:15 AM 24.8 °F 16.9 °F 17.6 °F 74% 30.07 in 10.0 mi ESE 6.9 mph - N/A   Clear
1:55 AM 24.8 °F 15.3 °F 17.6 °F 74% 30.06 in 10.0 mi ESE 9.2 mph - N/A   Clear
2:15 AM 24.8 °F 16.9 °F 17.6 °F 74% 30.07 in 10.0 mi ESE 6.9 mph - N/A   Clear
2:35 AM 24.8 °F 17.9 °F 17.6 °F 74% 30.07 in 10.0 mi ESE 5.8 mph - N/A   Clear
2:55 AM 24.8 °F 16.9 °F 17.6 °F 74% 30.07 in 10.0 mi East 6.9 mph - N/A   Clear
3:55 AM 24.8 °F 16.9 °F 17.6 °F 74% 30.06 in 10.0 mi ESE 6.9 mph - N/A   Clear
4:35 AM 24.8 °F 17.9 °F 17.6 °F 74% 30.06 in 10.0 mi ESE 5.8 mph - N/A   Clear
4:55 AM 24.8 °F 17.9 °F 17.6 °F 74% 30.05 in 10.0 mi ESE 5.8 mph - N/A   Clear
5:35 AM 24.8 °F 17.9 °F 17.6 °F 74% 30.03 in 10.0 mi ESE 5.8 mph - N/A   Clear
5:55 AM 24.8 °F 16.1 °F 17.6 °F 74% 30.03 in 10.0 mi ESE 8.1 mph - N/A   Clear
6:15 AM 24.8 °F 19.1 °F 17.6 °F 74% 30.03 in 10.0 mi East 4.6 mph - N/A   Clear
6:35 AM 24.8 °F 16.9 °F 17.6 °F 74% 30.03 in 10.0 mi ESE 6.9 mph - N/A   Clear
6:55 AM 24.8 °F 19.1 °F 17.6 °F 74% 30.03 in 10.0 mi ESE 4.6 mph - N/A   Clear
7:15 AM 24.8 °F 19.1 °F 17.6 °F 74% 30.03 in 10.0 mi East 4.6 mph - N/A   Clear
7:35 AM 24.8 °F 19.1 °F 17.6 °F 74% 30.04 in 10.0 mi ESE 4.6 mph - N/A   Clear
7:55 AM 24.8 °F 19.1 °F 17.6 °F 74% 30.04 in 10.0 mi East 4.6 mph - N/A   Clear
8:15 AM 26.6 °F 20.0 °F 19.4 °F 74% 30.05 in 10.0 mi ESE 5.8 mph - N/A   Clear
8:35 AM 26.6 °F 20.0 °F 19.4 °F 74% 30.05 in 10.0 mi ESE 5.8 mph - N/A   Clear
8:55 AM 28.4 °F 19.7 °F 19.4 °F 69% 30.04 in 10.0 mi ESE 9.2 mph - N/A   Clear
9:55 AM 30.2 °F 21.9 °F 21.2 °F 69% 30.04 in 10.0 mi SE 9.2 mph - N/A   Clear
10:35 AM 33.8 °F 25.8 °F 21.2 °F 60% 30.04 in 10.0 mi SSE 10.4 mph - N/A   Clear
10:55 AM 35.6 °F 27.5 °F 23.0 °F 60% 30.03 in 10.0 mi SSE 11.5 mph - N/A   Clear
11:35 AM 39.2 °F 32.5 °F 21.2 °F 49% 30.01 in 10.0 mi South 10.4 mph - N/A   Clear
11:55 AM 39.2 °F 32.0 °F 21.2 °F 49% 30.00 in 10.0 mi South 11.5 mph - N/A   Clear
12:15 PM 39.2 °F 31.6 °F 19.4 °F 45% 29.98 in 10.0 mi South 12.7 mph 17.3 mph N/A   Clear
12:35 PM 39.2 °F 32.0 °F 19.4 °F 45% 29.98 in 10.0 mi South 11.5 mph 18.4 mph N/A   Clear
1:15 PM 41.0 °F 33.9 °F 19.4 °F 42% 29.96 in 10.0 mi South 12.7 mph 17.3 mph N/A   Clear
1:35 PM 39.2 °F 32.0 °F 19.4 °F 45% 29.95 in 10.0 mi South 11.5 mph - N/A   Clear
1:55 PM 39.2 °F 31.6 °F 19.4 °F 45% 29.94 in 10.0 mi South 12.7 mph - N/A   Clear
2:15 PM 39.2 °F 32.0 °F 19.4 °F 45% 29.95 in 10.0 mi South 11.5 mph - N/A   Clear
2:35 PM 39.2 °F 32.5 °F 21.2 °F 49% 29.94 in 10.0 mi South 10.4 mph - N/A   Clear
3:15 PM 37.4 °F 30.3 °F 21.2 °F 52% 29.94 in 10.0 mi SSE 10.4 mph - N/A   Clear
3:35 PM 37.4 °F 30.8 °F 21.2 °F 52% 29.93 in 10.0 mi South 9.2 mph - N/A   Clear
3:55 PM 37.4 °F 32.8 °F 21.2 °F 52% 29.92 in 10.0 mi South 5.8 mph - N/A   Clear
4:15 PM 37.4 °F 32.8 °F 21.2 °F 52% 29.92 in 10.0 mi South 5.8 mph - N/A   Clear
4:55 PM 35.6 °F 30.7 °F 21.2 °F 56% 29.91 in 10.0 mi SSE 5.8 mph - N/A   Clear
5:15 PM 35.6 °F 30.7 °F 21.2 °F 56% 29.91 in 10.0 mi SSE 5.8 mph - N/A   Clear
5:35 PM 35.6 °F 29.9 °F 21.2 °F 56% 29.92 in 10.0 mi SE 6.9 mph - N/A   Clear
5:55 PM 35.6 °F 29.2 °F 21.2 °F 56% 29.92 in 10.0 mi SSE 8.1 mph - N/A   Clear
6:15 PM 35.6 °F 28.6 °F 21.2 °F 56% 29.92 in 10.0 mi SE 9.2 mph - N/A   Clear
6:35 PM 35.6 °F 29.2 °F 21.2 °F 56% 29.92 in 10.0 mi SSE 8.1 mph - N/A   Clear
6:55 PM 35.6 °F 29.9 °F 21.2 °F 56% 29.92 in 10.0 mi SSE 6.9 mph - N/A   Clear
7:15 PM 35.6 °F 29.2 °F 21.2 °F 56% 29.92 in 10.0 mi SSE 8.1 mph - N/A   Clear
7:35 PM 33.8 °F 25.3 °F 21.2 °F 60% 29.92 in 10.0 mi SSE 11.5 mph - N/A   Clear
7:55 PM 33.8 °F 25.8 °F 21.2 °F 60% 29.92 in 10.0 mi SSE 10.4 mph - N/A   Clear
8:15 PM 33.8 °F 25.3 °F 21.2 °F 60% 29.92 in 10.0 mi SSE 11.5 mph - N/A   Clear
8:35 PM 33.8 °F 25.8 °F 23.0 °F 65% 29.92 in 10.0 mi SSE 10.4 mph - N/A   Clear
9:15 PM 33.8 °F 27.7 °F 23.0 °F 65% 29.93 in 10.0 mi SSE 6.9 mph - N/A   Partly Cloudy
9:35 PM 32.0 °F 26.4 °F 23.0 °F 69% 29.93 in 10.0 mi SSE 5.8 mph - N/A   Clear
10:15 PM 32.0 °F 25.6 °F 24.8 °F 75% 29.95 in 10.0 mi SSE 6.9 mph - N/A   Scattered Clouds
10:35 PM 33.8 °F 29.6 °F 24.8 °F 70% 29.96 in 10.0 mi South 4.6 mph - N/A   Overcast
10:55 PM 33.8 °F 28.6 °F 24.8 °F 70% 29.95 in 10.0 mi SSE 5.8 mph - N/A   Overcast
11:35 PM 33.8 °F 28.6 °F 24.8 °F 70% 29.96 in 10.0 mi SSW 5.8 mph - N/A   Overcast
11:55 PM 33.8 °F 27.7 °F 26.6 °F 75% 29.95 in 10.0 mi South 6.9 mph - N/A   Overcast